Radiation Dose at Monitoring Post of Fukushima Daini Nuclear Power Station
Date,Time,MP-1(microSv/h),MP-2(microSv/h),MP-3(microSv/h),MP-4(microSv/h),MP-5(microSv/h),MP-6(microSv/h),MP-7(microSv/h),Wind Direction,Wind Velocity(m/s),Rain
2023/07/26,00:00,0.151,0.139,0.218,0.210,0.213,0.120,0.078,north,1.5,No
2023/07/26,00:10,0.150,0.138,0.220,0.209,0.211,0.120,0.077,-,CALM,No
2023/07/26,00:20,0.152,0.139,0.218,0.205,0.211,0.120,0.078,northeast,0.8,No
2023/07/26,00:30,0.151,0.139,0.216,0.208,0.215,0.119,0.078,northeast,0.6,No
2023/07/26,00:40,0.149,0.138,0.219,0.209,0.213,0.120,0.077,east,0.7,No
2023/07/26,00:50,0.150,0.138,0.218,0.208,0.211,0.120,0.078,northeast,0.6,No
2023/07/26,01:00,0.151,0.139,0.217,0.208,0.211,0.119,0.079,-,CALM,No
2023/07/26,01:10,0.150,0.138,0.218,0.210,0.215,0.120,0.077,southwest,0.7,No
2023/07/26,01:20,0.150,0.139,0.220,0.208,0.213,0.120,0.077,north-northwest,0.7,No
2023/07/26,01:30,0.151,0.139,0.218,0.207,0.212,0.120,0.077,-,CALM,No
2023/07/26,01:40,0.151,0.139,0.218,0.210,0.213,0.120,0.078,northeast,1.3,No
2023/07/26,01:50,0.150,0.138,0.220,0.210,0.215,0.121,0.077,north,1.0,No
2023/07/26,02:00,0.151,0.139,0.217,0.207,0.213,0.119,0.077,northwest,1.6,No
2023/07/26,02:10,0.152,0.139,0.219,0.209,0.212,0.120,0.078,north-northwest,2.0,No
2023/07/26,02:20,0.149,0.138,0.219,0.209,0.215,0.120,0.078,northwest,2.5,No
2023/07/26,02:30,0.149,0.139,0.218,0.207,0.215,0.119,0.077,north-northwest,2.4,No
2023/07/26,02:40,0.151,0.138,0.218,0.210,0.212,0.120,0.079,northwest,1.3,No
2023/07/26,02:50,0.151,0.137,0.219,0.209,0.211,0.121,0.078,north,0.8,No
2023/07/26,03:00,0.150,0.139,0.219,0.207,0.214,0.120,0.077,-,CALM,No
2023/07/26,03:10,0.151,0.139,0.218,0.209,0.214,0.119,0.078,-,CALM,No
2023/07/26,03:20,0.151,0.138,0.221,0.210,0.212,0.121,0.078,-,CALM,No
2023/07/26,03:30,0.150,0.139,0.219,0.209,0.214,0.120,0.078,east-southeast,0.7,No
2023/07/26,03:40,0.151,0.139,0.218,0.208,0.214,0.119,0.078,southeast,0.9,No
2023/07/26,03:50,0.152,0.138,0.220,0.211,0.213,0.120,0.078,southeast,1.0,No
2023/07/26,04:00,0.150,0.139,0.220,0.209,0.213,0.120,0.078,-,CALM,No
2023/07/26,04:10,0.151,0.139,0.217,0.207,0.216,0.120,0.078,-,CALM,No
2023/07/26,04:20,0.152,0.138,0.221,0.210,0.213,0.120,0.078,southeast,0.8,No
2023/07/26,04:30,0.151,0.140,0.220,0.208,0.212,0.120,0.078,south-southeast,0.6,No
2023/07/26,04:40,0.150,0.138,0.218,0.207,0.215,0.120,0.079,-,CALM,No
2023/07/26,04:50,0.152,0.139,0.220,0.210,0.215,0.120,0.078,east,0.6,No
2023/07/26,05:00,0.150,0.140,0.219,0.209,0.212,0.121,0.078,-,CALM,No
2023/07/26,05:10,0.150,0.138,0.219,0.209,0.212,0.120,0.078,-,CALM,No
2023/07/26,05:20,0.152,0.138,0.221,0.211,0.215,0.120,0.078,-,CALM,No
2023/07/26,05:30,0.151,0.141,0.219,0.209,0.213,0.120,0.078,-,CALM,No
2023/07/26,05:40,0.150,0.139,0.218,0.209,0.212,0.120,0.077,-,CALM,No
2023/07/26,05:50,0.150,0.138,0.221,0.210,0.211,0.120,0.079,-,CALM,No
2023/07/26,06:00,0.152,0.138,0.219,0.209,0.214,0.120,0.078,-,CALM,No
2023/07/26,06:10,0.150,0.137,0.218,0.207,0.214,0.119,0.078,-,CALM,No
2023/07/26,06:20,0.149,0.139,0.220,0.209,0.212,0.120,0.078,-,CALM,No
2023/07/26,06:30,0.152,0.140,0.219,0.209,0.212,0.120,0.077,-,CALM,No
2023/07/26,06:40,0.151,0.139,0.218,0.208,0.213,0.120,0.078,-,CALM,No
2023/07/26,06:50,0.151,0.139,0.217,0.206,0.211,0.119,0.078,-,CALM,No
2023/07/26,07:00,0.150,0.138,0.220,0.207,0.211,0.120,0.078,-,CALM,No
2023/07/26,07:10,0.150,0.138,0.220,0.207,0.212,0.120,0.078,-,CALM,No
2023/07/26,07:20,0.150,0.137,0.219,0.206,0.211,0.120,0.078,-,CALM,No
2023/07/26,07:30,0.151,0.139,0.218,0.206,0.212,0.120,0.078,-,CALM,No
2023/07/26,07:40,0.151,0.139,0.218,0.207,0.212,0.119,0.078,-,CALM,No
2023/07/26,07:50,0.150,0.139,0.218,0.207,0.212,0.120,0.078,-,CALM,No
2023/07/26,08:00,0.150,0.139,0.218,0.208,0.212,0.120,0.078,-,CALM,No
2023/07/26,08:10,0.151,0.139,0.218,0.209,0.213,0.120,0.079,east,0.9,No
2023/07/26,08:20,0.151,0.138,0.217,0.209,0.215,0.119,0.078,-,CALM,No
2023/07/26,08:30,0.150,0.137,0.218,0.209,0.213,0.120,0.078,-,CALM,No
2023/07/26,08:40,0.150,0.138,0.219,0.208,0.215,0.119,0.078,-,CALM,No
2023/07/26,08:50,0.151,0.138,0.220,0.210,0.214,0.119,0.077,-,CALM,No
2023/07/26,09:00,0.150,0.137,0.219,0.209,0.215,0.120,0.078,-,CALM,No
2023/07/26,09:10,0.150,0.139,0.219,0.210,0.214,0.119,0.078,east,1.2,No
2023/07/26,09:20,-,-,-,-,-,-,-,-,-,-
2023/07/26,09:30,0.151,0.138,0.220,0.211,0.214,0.119,0.077,southeast,0.7,No
2023/07/26,09:40,0.150,0.138,0.219,0.209,0.215,0.119,0.078,east,1.4,No
2023/07/26,09:50,0.151,0.139,0.219,0.210,0.215,0.120,0.078,east-southeast,2.0,No
2023/07/26,10:00,0.150,0.139,0.219,0.210,0.215,0.120,0.077,east-southeast,2.8,No
2023/07/26,10:10,0.151,0.138,0.218,0.210,0.213,0.121,0.077,east-southeast,2.6,No
2023/07/26,10:20,0.150,0.139,0.217,0.210,0.215,0.120,0.078,east-southeast,2.5,No
2023/07/26,10:30,0.151,0.139,0.219,0.211,0.213,0.120,0.077,east-southeast,1.8,No
2023/07/26,10:40,0.151,0.137,0.219,0.208,0.213,0.121,0.078,southeast,2.4,No
2023/07/26,10:50,0.151,0.139,0.220,0.209,0.214,0.119,0.078,east-southeast,1.7,No
2023/07/26,11:00,0.152,0.139,0.218,0.209,0.214,0.119,0.077,southeast,1.3,No
2023/07/26,11:10,0.151,0.138,0.218,0.210,0.213,0.120,0.077,southeast,1.3,No
2023/07/26,11:20,0.150,0.138,0.218,0.210,0.213,0.120,0.077,southeast,1.4,No
2023/07/26,11:30,0.151,0.140,0.219,0.210,0.214,0.119,0.077,-,CALM,No
2023/07/26,11:40,0.151,0.139,0.217,0.210,0.213,0.121,0.077,-,CALM,No
2023/07/26,11:50,0.151,0.138,0.219,0.210,0.214,0.121,0.078,east-southeast,1.9,No
2023/07/26,12:00,0.151,0.138,0.219,0.209,0.214,0.120,0.077,south-southeast,2.1,No
2023/07/26,12:10,0.151,0.138,0.220,0.210,0.214,0.120,0.077,south-southeast,1.3,No
2023/07/26,12:20,0.151,0.138,0.220,0.210,0.213,0.119,0.078,south,1.8,No
2023/07/26,12:30,0.151,0.138,0.219,0.210,0.213,0.119,0.078,-,CALM,No
2023/07/26,12:40,0.152,0.138,0.219,0.210,0.212,0.119,0.078,south-southeast,2.0,No
2023/07/26,12:50,0.151,0.139,0.219,0.210,0.213,0.119,0.077,south-southeast,2.9,No
2023/07/26,13:00,0.151,0.138,0.219,0.209,0.213,0.119,0.077,south,2.0,No
2023/07/26,13:10,0.150,0.138,0.220,0.209,0.213,0.119,0.078,south-southeast,2.8,No
2023/07/26,13:20,0.150,0.139,0.218,0.211,0.213,0.120,0.077,south-southeast,2.5,No
2023/07/26,13:30,0.150,0.139,0.218,0.210,0.213,0.120,0.078,south-southeast,3.0,No
2023/07/26,13:40,0.150,0.139,0.219,0.210,0.213,0.120,0.079,southeast,3.1,No
2023/07/26,13:50,0.151,0.139,0.219,0.210,0.208,0.120,0.078,southeast,3.3,No
2023/07/26,14:00,0.151,0.139,0.219,0.210,0.213,0.120,0.077,southeast,3.2,No
2023/07/26,14:10,0.152,0.139,0.220,0.209,0.213,0.121,0.078,southeast,3.0,No
2023/07/26,14:20,0.150,0.139,0.219,0.210,0.213,0.120,0.078,south-southeast,3.4,No
2023/07/26,14:30,0.150,0.139,0.218,0.210,0.212,0.121,0.077,southeast,2.5,No
2023/07/26,14:40,0.151,0.139,0.219,0.209,0.213,0.121,0.077,south-southeast,3.0,No
2023/07/26,14:50,0.149,0.139,0.217,0.210,0.213,0.120,0.077,south-southeast,3.0,No
2023/07/26,15:00,0.149,0.140,0.220,0.210,0.212,0.119,0.077,south-southeast,2.3,No
2023/07/26,15:10,0.151,0.138,0.220,0.210,0.214,0.120,0.077,south-southeast,3.2,No
2023/07/26,15:20,0.151,0.138,0.219,0.210,0.213,0.120,0.077,south-southeast,3.0,No
2023/07/26,15:30,0.149,0.139,0.219,0.210,0.213,0.119,0.077,south,2.2,No
2023/07/26,15:40,0.150,0.138,0.220,0.208,0.211,0.119,0.077,south-southeast,2.7,No
2023/07/26,15:50,0.150,0.137,0.218,0.208,0.212,0.119,0.077,south-southeast,2.9,No
2023/07/26,16:00,0.149,0.138,0.218,0.208,0.212,0.120,0.076,south-southeast,3.2,No
2023/07/26,16:10,0.150,0.138,0.218,0.208,0.212,0.120,0.076,south-southeast,2.8,No
2023/07/26,16:20,0.150,0.137,0.218,0.208,0.212,0.120,0.078,south-southeast,3.2,No
2023/07/26,16:30,0.149,0.138,0.218,0.209,0.212,0.119,0.076,southeast,3.0,No
2023/07/26,16:40,0.150,0.138,0.218,0.208,0.212,0.119,0.077,south-southeast,2.5,No
2023/07/26,16:50,0.150,0.137,0.218,0.208,0.212,0.119,0.076,south,2.3,No
2023/07/26,17:00,0.150,0.137,0.218,0.208,0.212,0.119,0.077,south-southeast,3.4,No
2023/07/26,17:10,0.149,0.137,0.219,0.208,0.213,0.120,0.077,south-southeast,3.4,No
2023/07/26,17:20,0.149,0.137,0.219,0.207,0.212,0.119,0.077,south-southeast,4.5,No
2023/07/26,17:30,0.149,0.138,0.219,0.208,0.211,0.119,0.077,south,4.9,No
2023/07/26,17:40,0.149,0.137,0.219,0.207,0.211,0.120,0.076,south,4.7,No
2023/07/26,17:50,0.149,0.138,0.219,0.208,0.212,0.119,0.076,south,4.0,No
2023/07/26,18:00,0.149,0.137,0.218,0.208,0.210,0.119,0.076,south,4.4,No
2023/07/26,18:10,0.149,0.137,0.217,0.208,0.211,0.120,0.076,south,3.3,No
2023/07/26,18:20,0.149,0.137,0.218,0.207,0.211,0.120,0.075,south-southwest,3.6,No
2023/07/26,18:30,0.149,0.137,0.217,0.208,0.210,0.119,0.076,south-southwest,3.7,No
2023/07/26,18:40,0.149,0.138,0.217,0.208,0.212,0.119,0.078,south,3.3,No
2023/07/26,18:50,0.148,0.137,0.218,0.210,0.211,0.121,0.076,south-southwest,3.8,No
2023/07/26,19:00,0.149,0.138,0.221,0.211,0.212,0.119,0.076,south-southwest,3.5,No
2023/07/26,19:10,0.150,0.138,0.220,0.209,0.211,0.119,0.077,south-southwest,3.1,No
2023/07/26,19:20,0.151,0.138,0.220,0.208,0.210,0.119,0.076,south-southwest,3.4,No
2023/07/26,19:30,0.150,0.138,0.219,0.208,0.213,0.120,0.075,south-southwest,3.8,No
2023/07/26,19:40,0.149,0.138,0.217,0.208,0.215,0.120,0.077,south-southwest,4.0,No
2023/07/26,19:50,0.149,0.136,0.218,0.211,0.213,0.120,0.077,southwest,3.3,No
2023/07/26,20:00,0.149,0.139,0.219,0.210,0.213,0.119,0.078,south-southwest,3.4,No
2023/07/26,20:10,0.151,0.140,0.222,0.210,0.213,0.119,0.077,south-southwest,3.7,No
2023/07/26,20:20,0.152,0.139,0.218,0.208,0.213,0.119,0.076,south-southwest,4.4,No
2023/07/26,20:30,0.150,0.137,0.219,0.208,0.210,0.120,0.077,southwest,3.9,No
2023/07/26,20:40,0.150,0.137,0.219,0.210,0.215,0.120,0.077,southwest,3.1,No
2023/07/26,20:50,0.149,0.140,0.219,0.212,0.215,0.120,0.077,southwest,3.3,No
2023/07/26,21:00,0.151,0.140,0.223,0.211,0.213,0.120,0.077,southwest,3.8,No
2023/07/26,21:10,0.152,0.138,0.221,0.208,0.212,0.119,0.077,west-southwest,2.7,No
2023/07/26,21:20,0.151,0.138,0.219,0.208,0.212,0.120,0.076,west-southwest,3.0,No
2023/07/26,21:30,0.150,0.138,0.219,0.209,0.212,0.121,0.078,west-southwest,3.2,No
2023/07/26,21:40,0.149,0.139,0.221,0.212,0.216,0.120,0.078,west-southwest,3.0,No
2023/07/26,21:50,-,-,-,-,-,-,-,-,-,-
2023/07/26,22:00,0.151,0.138,0.220,0.209,0.213,0.120,0.077,west-southwest,4.1,No
2023/07/26,22:10,0.151,0.137,0.218,0.209,0.212,0.120,0.077,southwest,3.7,No
2023/07/26,22:20,0.149,0.138,0.218,0.212,0.211,0.120,0.077,south-southwest,4.3,No
2023/07/26,22:30,0.150,0.140,0.222,0.211,0.216,0.119,0.077,southwest,4.3,No
2023/07/26,22:40,0.152,0.138,0.220,0.209,0.214,0.119,0.077,southwest,3.4,No
2023/07/26,22:50,0.152,0.137,0.219,0.208,0.213,0.120,0.077,south-southwest,2.5,No
2023/07/26,23:00,0.151,0.138,0.218,0.211,0.212,0.120,0.077,west-southwest,1.2,No
2023/07/26,23:10,0.150,0.139,0.221,0.211,0.211,0.120,0.077,west,1.8,No
2023/07/26,23:20,0.151,0.139,0.222,0.209,0.212,0.119,0.077,west,1.7,No
2023/07/26,23:30,0.151,0.138,0.220,0.207,0.215,0.121,0.078,west,3.1,No
2023/07/26,23:40,0.152,0.139,0.217,0.210,0.215,0.120,0.078,west-southwest,2.0,No
2023/07/26,23:50,0.150,0.140,0.221,0.212,0.212,0.120,0.078,south-southwest,2.0,No
